Погода в Первомайском

Украина / Донецкая область     47°25′31″N   38°07′03″E
темп.,
°C
ветер,
м/с
пор.,
м/с
влажн.,
%
обл.,
%
осадки,
мм/ч
давл.,
гПа
погр.,
м
10 мая, пн
пн1000:00+6зсз410735 0.0 1022228
03:00+5сз510785 0.0 1023224
06:00+5сз511775 0.0 1023336
09:00+11ссз71152100 0.0 10221633
12:00+12ссз81143100 0.0 10202215
15:00+13сз71146100 0.0 10192305
18:00+12сз71350100 0.0 10171827
21:00+9сз71367100 0.6 10151297
11 мая, вт
вт1100:00+7зсз91687100 6.1 1011980
03:00+9сз71294100 8.4 1009802
06:00+7ссв71188100 0.1 1011838
09:00+8ссв71076100 0.1 10121160
12:00+10ссв6963100 0.0 10121683
15:00+11ссв5764100 0.3 10131320
18:00+9с458195 0.6 1014696
21:00+8всв2387100 0.8 1014145
12 мая, ср
ср1200:00+7вюв489499 0.4 1015259
03:00+7всв469462 1.4 1015135
06:00+7вюв489499 0.5 1015461
09:00+9ююв71191100 2.6 1015802
12:00+12ююв81085100 1.6 10151073
15:00+12ююв71081100 2.3 1016909
18:00+12юв368288 0.1 1016244
21:00+11в359285 0.1 1016113
13 мая, чт
чт1300:00+9в23920 0.0 101635
03:00+9всв3493100 0.0 101561
06:00+9всв389264 0.0 1015168
09:00+16в5870100 0.0 1015505
12:00+21вюв785590 0.0 10141122
15:00+22вюв7857100 0.0 10131164
18:00+21вюв61071100 0.0 1013737
21:00+16в412925 0.0 1013250
14 мая, пт
пт1400:00+15в412915 0.0 1012224
03:00+14в4129260 0.0 1012224
06:00+14вюв312910 0.0 1012274
09:00+21юв696569 0.0 1011484
12:00+24ююв6757100 0.0 1012732
15:00+26ююв4552100 0.0 1012855
18:00+25ююв256689 0.0 1011519
21:00+20ююв228573 0.0 101112